Regional Weather Roundup
Issued by NWS

Home | Current Version | Previous Version | Text Only | Print | Product List | Glossary On
Versions: 1 2 3 4 5 6 7 8 9 10 11 12 13 14 15 16 17 18 19 20 21 22 23 24 25 26 27 28 29 30 31 32 33 34 35 36 37 38 39 40 41 42 43 44 45 46 47 48 49 50
626
ASUS46 KLOX 021903
RWRCA

SOUTHERN CALIFORNIA WEATHER ROUNDUP
NATIONAL WEATHER SERVICE OXNARD CALIFORNIA
1100 AM PST FRI DEC 02 2016

NOTE: "FAIR" INDICATES FEW OR NO CLOUDS BELOW 12,000 FEET WITH NO
SIGNIFICANT WEATHER AND/OR OBSTRUCTIONS TO VISIBILITY.

  -  STATIONS PRECEEDED BY AN ASTERISK (*) ARE NOT NWS OR FAA
     STATIONS AND ARE NOT SUBJECT TO NWS AND FAA QUALITY CONTROL.

CAZ041-042-087-022000-
LA AND ORANGE COUNTY COASTAL AREAS


CITY           SKY/WX    TMP DP  RH WIND       PRES   REMARKS
L.A. DOWNTOWN  NOT AVBL
L.A. AIRPORT   SUNNY     65  13  13 NE12G21   30.02F
LONG BEACH     SUNNY     64  15  15 NE8       30.02F

CITY           SKY/WX    TMP DP  RH WIND       PRES   REMARKS
AVALON           N/A     61 N/A N/A MISG        N/A
FULLERTON      SUNNY     65  38  36 E12       30.01F
*GETTY CENTER    N/A     57  10  15 NE14G24     N/A
HAWTHORNE      SUNNY     62  22  21 S6        30.03S
*LEO CARRILLO    N/A     65  19  17 SW3G22      N/A
*LOS ALAMITOS  SUNNY     64  16  16 E16       30.01F
*REDONDO BEACH   N/A     64  26  24 CALM      30.02F
SANTA ANA      SUNNY     63  15  15 NE25G39   30.01F
STA MONICA APT SUNNY     63  11  13 N12G24    30.03S
*STA MON PIER    N/A     63  18  17 E13       30.01S
TORRANCE       SUNNY     64  25  22 CALM      30.04
*UCLA            N/A     61  10  13 N21       29.99F

$$

CAZ547-548-048-022000-
LA COUNTY VALLEYS AND INLAND EMPIRE


CITY           SKY/WX    TMP DP  RH WIND       PRES   REMARKS
BURBANK        SUNNY     61  11  14 N10G22    30.04S
VAN NUYS       CLOUDY    59  13  16 NE22G37   30.04S

CITY           SKY/WX    TMP DP  RH WIND       PRES   REMARKS
CORONA AIRPORT CLEAR     60  16  18 NE29G43   30.03S
*CHATSWORTH      N/A     58  18  21 NE17      30.10R
CHINO          MOSUNNY   61  16  17 NE13G31   30.00F
*CLAREMONT       N/A     60  14  16 NW7G21      N/A
MARCH AFB      SUNNY     56  14  18 N29G38    30.00F
*NORTHRIDGE      N/A     57   9  14 N9G21       N/A
ONTARIO        MOSUNNY   60  14  16 NE31G44   30.00S
*PASADENA        N/A     61  21  21 CALM        N/A
POMONA         SUNNY     59  10  14 N9G23     30.02F
RIVERSIDE      SUNNY     59  16  18 NE21G38   30.03F
SAN BERNARDINO SUNNY     59 N/A N/A N29G38    30.05F
*SAN RAFAEL HI   N/A     57  13  17 SE7G36      N/A
*SAUGUS          N/A     52  12  20 N21G47      N/A
*WHITEMAN AP   SUNNY     57  12  17 NE16G30   30.09R
*WHITTIER HILL   N/A     60  19  20 W6          N/A
*WOODLAND HILL   N/A     57  14  18 N8G16       N/A

$$

CAZ054-055-022000-
LA AND SAN BERNARDINO COUNTY MOUNTAINS


CITY           SKY/WX    TMP DP  RH WIND       PRES   REMARKS
*ACTON           N/A     48  10  21 NE26G41     N/A
*BIG BEAR AIRP CLEAR     28   9  43 N8G20     30.05F WCI  20
*BIG PINES       N/A     30  10  42 W5          N/A  WCI  25
*CHILAO          N/A     34   9  34 NE43G74     N/A  WCI  18
SANDBERG       SUNNY     43  12  28 E31G45    30.09R WCI  32
*WARM SPRINGS    N/A     43  11  26 NE40G63     N/A  WCI  31

$$

CAZ028-029-059-060-099-022000-
ANTELOPE VALLEY AND SURROUNDING AREAS


CITY           SKY/WX    TMP DP  RH WIND       PRES   REMARKS
LANCASTER      SUNNY     51  11  20 NE22G31   30.16F
PALMDALE       SUNNY     50  12  21 NE26G33   30.15F
*POPPY PARK      N/A     48  10  21 NE24        N/A

CITY           SKY/WX    TMP DP  RH WIND       PRES   REMARKS
29 PALMS       MOSUNNY   52  11  19 N25G35    30.14F
BARSTOW/DAGGET SUNNY     52   8  17 N26G35    30.13F
BISHOP         SUNNY     43   9  24 N20G26    30.27F WCI  34
CHINA LAKE     SUNNY     51   8  17 N30G41    30.16F
EDWARDS AFB    MOSUNNY   51  10  19 N22G30    30.12F
MOJAVE         SUNNY     48  10  21 NE23G30   30.13F
NEEDLES        MOSUNNY   61  19  19 N31G38    30.01F
VICTORVILLE    SUNNY     48   9  20 N17G24    30.14F

$$

CAZ039-040-022000-
VENTURA AND SANTA BARBARA COUNTY COAST


CITY           SKY/WX    TMP DP  RH WIND       PRES   REMARKS
CAMARILLO      SUNNY     64  16  15 E25G32    30.08S
NWS OXNARD       N/A     63  19  18 CALM      30.07S
OXNARD AIRPORT SUNNY     65  19  17 E20G28    30.07F
SBA APT/GOLETA SUNNY     61  45  55 VRB6      30.08S
*SANTA BARBARA   N/A     62  40  44 CALM      30.16F
*VENTURA         N/A     64  24  21 NE12      30.06F

$$

CAZ044-045-022000-
VENTURA COUNTY VALLEYS


CITY           SKY/WX    TMP DP  RH WIND       PRES   REMARKS
*SIMI VALLEY     N/A     56  20  24 CALM      30.04F
*WESTLAKE VILL   N/A     58  25  27 CALM      30.07R
*OJAI            N/A     63  35  36 CALM      30.03F
*FILLMORE        N/A     62  27  27 E5        29.99F

$$

CAZ053-022000-
VENTURA COUNTY MOUNTAINS


CITY           SKY/WX    TMP DP  RH WIND       PRES   REMARKS
*LOCKWOOD VLY    N/A     34  14  44 E5          N/A  WCI  30
*ROSE VALLEY     N/A     48  21  34 MISG        N/A

$$

CAZ034-035-036-022000-
CENTRAL COAST AND SANTA YNEZ VALLEY


CITY           SKY/WX    TMP DP  RH WIND       PRES   REMARKS
SAN LUIS OBISP SUNNY     58  32  37 NW14      30.15F
SANTA MARIA    SUNNY     57  35  43 NE16G25   30.14S

CITY           SKY/WX    TMP DP  RH WIND       PRES   REMARKS
*CAL POLY SLO    N/A     54  34  47 NW9G17      N/A
*LOMPOC        SUNNY     58  37  45 N14       30.12F
*PISMO BEACH     N/A     58  34  41 W3        30.16S
*SANTA YNEZ      N/A    N/A N/A N/A MISG        N/A

$$

CAZ037-038-051-022000-
SAN LUIS OBISPO COUNTY INTERIOR AND CUYAMA VALLEY


CITY           SKY/WX    TMP DP  RH WIND       PRES   REMARKS
*CUYAMA          N/A     44  34  69 NE7       30.18S
PASO ROBLES    SUNNY     48  36  63 VRB3      30.17F

$$

CAZ032-033-061-022000-
SOUTHERN DESERTS


CITY           SKY/WX    TMP DP  RH WIND       PRES   REMARKS
BLYTHE         MOSUNNY   61  20  20 N29G37    29.97F
IMPERIAL       MOSUNNY   65  23  20 N20G32    29.97F
PALM SPRINGS   MOSUNNY   63  13  14 N25G35    30.06F
THERMAL        SUNNY     66  12  12 NW17G28   30.00F

$$

ELSEWHERE ACROSS THE WESTERN UNITED STATES AND MEXICO


CITY           SKY/WX    TMP DP  RH WIND       PRES   REMARKS
DENVER, CO     CLOUDY    32  19  58 E9        30.18F WCI  24
GRAND CANYON,  MOSUNNY   32  16  51 E15       30.00S WCI  22
HONOLULU, HI   MOSUNNY   76  67  73 E8        29.99R
KAHULUI, MAUI  CLOUDY    74  65  73 SE3       29.99R
LAKE TAHOE, CA SUNNY     28   7  41 NE24G36   30.22F WCI  14
LAS VEGAS, NV  PTSUNNY   52  11  19 NW17G29   30.11F
MAMMOTH LAKES, FAIR      29   4  34 NW7       30.25S WCI  22
MEXICO CITY, M PTSUNNY   73  41  31 CALM      30.26F
PHOENIX, AZ    PTSUNNY   55  29  36 E5        29.92F
PORTLAND, OR   LGT RAIN  45  42  89 S5        30.38S
RENO, NV       MOSUNNY   36  16  44 E9        30.34F WCI  29
SALT LAKE CITY MOSUNNY   34  20  56 W6        30.24S WCI  29
SAN DIEGO, CA  MOSUNNY   65  31  28 NE6       29.98F
SAN FRANCISCO, MOSUNNY   57  33  40 N24G30    30.22F
SAN JOSE, CA   MOSUNNY   59  24  26 NW13G21   30.23F
SEATTLE, WA    CLOUDY    45  43  93 SE14      30.23F
TIJUANA, MEX   SUNNY     61  43  51 CALM      29.99F

$$

STATION/POSITION TIME  TEMP    WIND        PRES    VSBY  WAVE
                       AIR SEA DIR/SP/G                  HT/PER
                 (UTC) (F)     (DEG/KT/KT) (MB)    (MI)  (FT/S)
POINT ARGUELLO B NOT AVBL
WEST SANTA BARBA 1850   56 57  350/ 16/ 19 1018.7S        10/12
POINT CONCEPTION NOT AVBL
EAST SANTA BARBA 1840          220/  4/  6 1019.1S
SANTA MONICA BAY 1840   60 61   20/ 21/ 25 1017.5R



USA.gov is the U.S. government's official web portal to all federal, state and local government web resources and services.